TimeMST,TemperatureF,Dew PointF,Humidity,Sea Level PressureIn,VisibilityMPH,Wind Direction,Wind SpeedMPH,Gust SpeedMPH,PrecipitationIn,Events,Conditions,WindDirDegrees,DateUTC
1:53 AM,43.0,21.0,42,29.94,10.0,West,4.6,-,N/A,,Unknown,270,2012-11-20 08:53:00
2:53 AM,39.0,21.0,49,29.96,10.0,SSW,8.1,-,N/A,,Unknown,210,2012-11-20 09:53:00
3:53 AM,46.0,19.9,35,29.95,10.0,SSW,4.6,-,N/A,,Unknown,200,2012-11-20 10:53:00
4:53 AM,39.0,21.0,49,29.98,10.0,WSW,5.8,-,N/A,,Unknown,240,2012-11-20 11:53:00
5:53 AM,42.1,21.0,43,29.99,10.0,South,6.9,-,N/A,,Unknown,190,2012-11-20 12:53:00
6:53 AM,41.0,21.0,45,29.99,10.0,SSW,4.6,-,N/A,,Unknown,210,2012-11-20 13:53:00
7:53 AM,39.9,21.9,49,30.01,10.0,South,5.8,-,N/A,,Unknown,190,2012-11-20 14:53:00
8:53 AM,50.0,24.1,36,29.96,10.0,ESE,3.5,-,N/A,,Unknown,120,2012-11-20 15:53:00
9:53 AM,51.1,26.1,38,29.97,10.0,Calm,Calm,-,N/A,,Unknown,0,2012-11-20 16:53:00
10:53 AM,50.0,28.0,43,29.96,10.0,SSE,9.2,-,N/A,,Unknown,150,2012-11-20 17:53:00
12:53 PM,52.0,32.0,47,29.94,10.0,West,9.2,16.1,N/A,,Clear,270,2012-11-20 19:53:00
1:53 PM,52.0,30.9,45,29.90,10.0,Calm,Calm,-,N/A,,Clear,0,2012-11-20 20:53:00
2:53 PM,53.1,30.9,43,29.90,10.0,NW,10.4,-,N/A,,Clear,320,2012-11-20 21:53:00
3:53 PM,52.0,30.0,43,29.88,10.0,WSW,4.6,-,N/A,,Clear,250,2012-11-20 22:53:00
4:53 PM,51.1,30.9,46,29.91,10.0,NNW,6.9,-,N/A,,Clear,330,2012-11-20 23:53:00
5:53 PM,50.0,28.9,44,29.90,10.0,South,4.6,-,N/A,,Clear,190,2012-11-21 00:53:00
6:53 PM,60.1,28.9,31,29.86,10.0,WSW,21.9,33.4,N/A,,Clear,250,2012-11-21 01:53:00
7:53 PM,55.9,28.9,36,29.89,10.0,South,5.8,-,N/A,,Partly Cloudy,170,2012-11-21 02:53:00
8:53 PM,57.9,28.9,33,29.83,10.0,SSW,13.8,19.6,N/A,,Clear,200,2012-11-21 03:53:00
9:53 PM,53.1,28.0,38,29.83,10.0,NNW,6.9,-,N/A,,Clear,340,2012-11-21 04:53:00
10:53 PM,55.0,28.0,35,29.81,10.0,NW,4.6,-,N/A,,Clear,310,2012-11-21 05:53:00
11:53 PM,57.0,26.1,30,29.78,10.0,North,3.5,-,N/A,,Clear,10,2012-11-21 06:53:00